| time (UTC) | temp F | wind direction | speed MPH | gust MPH | rain 1hr in | rain 24hr in | rain mn in | humidity % | barometer mb |
| 20260906214316 | 71 | 16 | 0.0 | 2.0 | 0.00 | 0.41 | 0.33 | 57 | 1014.1 |
| 20260906213807 | 71 | 16 | 1.0 | 3.0 | 0.00 | 0.41 | 0.33 | 56 | 1014.1 |
| 20260906213252 | 71 | 12 | 0.0 | 2.0 | 0.00 | 0.41 | 0.33 | 57 | 1014.1 |
| 20260906212755 | 71 | 12 | 0.0 | 2.0 | 0.00 | 0.41 | 0.33 | 58 | 1014.1 |
| 20260906212259 | 71 | 12 | 0.0 | 2.0 | 0.00 | 0.41 | 0.33 | 57 | 1014.0 |
| 20260906211807 | 72 | 12 | 1.0 | 3.0 | 0.00 | 0.41 | 0.33 | 57 | 1014.0 |
| 20260906211255 | 72 | 48 | 0.0 | 2.0 | 0.00 | 0.41 | 0.33 | 59 | 1014.0 |
| 20260906210758 | 72 | 48 | 0.0 | 2.0 | 0.00 | 0.41 | 0.33 | 57 | 1013.8 |
| 20260906210304 | 72 | 58 | 0.0 | 2.0 | 0.00 | 0.41 | 0.33 | 55 | 1013.8 |
| 20260906205754 | 72 | 142 | 0.0 | 1.0 | 0.00 | 0.41 | 0.33 | 56 | 1013.8 |
| 20260906205254 | 72 | 142 | 0.0 | 3.0 | 0.00 | 0.41 | 0.33 | 56 | 1013.7 |
| 20260906204756 | 72 | 300 | 1.0 | 2.0 | 0.00 | 0.41 | 0.33 | 56 | 1013.7 |
| 20260906204303 | 72 | 219 | 0.0 | 3.0 | 0.00 | 0.41 | 0.33 | 56 | 1013.7 |
| 20260906203807 | 72 | 219 | 0.0 | 3.0 | 0.00 | 0.41 | 0.33 | 56 | 1013.6 |
| 20260906203252 | 72 | 101 | 0.0 | 2.0 | 0.00 | 0.41 | 0.33 | 57 | 1013.6 |
| 20260906202802 | 72 | 47 | 0.0 | 2.0 | 0.00 | 0.41 | 0.33 | 58 | 1013.6 |
| 20260906202248 | 73 | 47 | 1.0 | 4.0 | 0.00 | 0.41 | 0.33 | 54 | 1013.7 |
| 20260906201757 | 73 | 47 | 0.0 | 4.0 | 0.00 | 0.41 | 0.33 | 54 | 1013.7 |
| 20260906201306 | 74 | 52 | 1.0 | 4.0 | 0.00 | 0.41 | 0.33 | 53 | 1013.7 |
| 20260906200757 | 74 | 51 | 1.0 | 4.0 | 0.00 | 0.41 | 0.33 | 52 | 1013.6 |
| 20260906200300 | 75 | 61 | 1.0 | 3.0 | 0.00 | 0.41 | 0.33 | 54 | 1013.6 |
| 20260906195804 | 75 | 61 | 1.0 | 4.0 | 0.00 | 0.41 | 0.33 | 53 | 1013.6 |
| 20260906195251 | 75 | 60 | 3.0 | 4.0 | 0.00 | 0.41 | 0.33 | 51 | 1013.7 |
| 20260906194759 | 75 | 32 | 0.0 | 2.0 | 0.00 | 0.41 | 0.33 | 55 | 1013.7 |
| 20260906194331 | 75 | 32 | 0.0 | 3.0 | 0.00 | 0.41 | 0.33 | 54 | 1013.7 |
| 20260906193753 | 75 | 32 | 1.0 | 3.0 | 0.00 | 0.41 | 0.33 | 52 | 1013.7 |
| 20260906193318 | 75 | 36 | 1.0 | 3.0 | 0.00 | 0.41 | 0.33 | 55 | 1013.7 |
| 20260906192826 | 75 | 36 | 1.0 | 3.0 | 0.00 | 0.41 | 0.33 | 56 | 1013.7 |
| 20260906192252 | 75 | 134 | 1.0 | 3.0 | 0.00 | 0.41 | 0.33 | 56 | 1013.8 |
| 20260906191756 | 74 | 32 | 1.0 | 3.0 | 0.00 | 0.41 | 0.33 | 57 | 1013.8 |
| 20260906191303 | 74 | 28 | 1.0 | 5.0 | 0.00 | 0.41 | 0.33 | 55 | 1013.8 |
| 20260906190754 | 73 | 5 | 1.0 | 5.0 | 0.00 | 0.41 | 0.33 | 58 | 1014.1 |
| 20260906190256 | 73 | 34 | 1.0 | 5.0 | 0.00 | 0.41 | 0.33 | 54 | 1014.1 |
| 20260906185828 | 73 | 5 | 2.0 | 5.0 | 0.00 | 0.41 | 0.33 | 54 | 1014.1 |
| 20260906185255 | 73 | 49 | 2.0 | 5.0 | 0.00 | 0.41 | 0.33 | 54 | 1014.1 |
| 20260906184756 | 72 | 9 | 2.0 | 5.0 | 0.00 | 0.41 | 0.33 | 55 | 1014.1 |
| 20260906184301 | 72 | 5 | 2.0 | 5.0 | 0.00 | 0.41 | 0.33 | 58 | 1014.1 |
| 20260906183805 | 72 | 50 | 1.0 | 4.0 | 0.00 | 0.41 | 0.33 | 57 | 1014.2 |
| 20260906183309 | 72 | 38 | 1.0 | 4.0 | 0.00 | 0.41 | 0.33 | 58 | 1014.2 |
| 20260906182755 | 71 | 34 | 1.0 | 5.0 | 0.00 | 0.41 | 0.33 | 61 | 1014.2 |
| 20260906182306 | 70 | 44 | 2.0 | 5.0 | 0.00 | 0.41 | 0.33 | 60 | 1014.2 |
| 20260906181813 | 70 | 62 | 2.0 | 4.0 | 0.00 | 0.41 | 0.33 | 60 | 1014.2 |
| 20260906181323 | 70 | 17 | 1.0 | 4.0 | 0.00 | 0.41 | 0.33 | 64 | 1014.2 |
| 20260906180831 | 70 | 53 | 1.0 | 2.0 | 0.00 | 0.41 | 0.33 | 67 | 1014.4 |
| 20260906180314 | 70 | 54 | 0.0 | 4.0 | 0.00 | 0.41 | 0.33 | 70 | 1014.4 |
| 20260906175805 | 70 | 58 | 1.0 | 4.0 | 0.00 | 0.41 | 0.33 | 67 | 1014.4 |
| 20260906175308 | 70 | 44 | 1.0 | 3.0 | 0.00 | 0.41 | 0.33 | 67 | 1014.6 |
| 20260906174754 | 70 | 46 | 1.0 | 4.0 | 0.00 | 0.41 | 0.33 | 67 | 1014.6 |
| 20260906174303 | 70 | 19 | 1.0 | 4.0 | 0.00 | 0.41 | 0.33 | 68 | 1014.6 |
| 20260906173830 | 70 | 75 | 1.0 | 4.0 | 0.00 | 0.41 | 0.33 | 70 | 1014.6 |
| 20260906173256 | 70 | 51 | 1.0 | 2.0 | 0.00 | 0.41 | 0.33 | 72 | 1014.6 |
| 20260906172823 | 69 | 51 | 0.0 | 5.0 | 0.00 | 0.41 | 0.33 | 71 | 1014.6 |
| 20260906172251 | 69 | 51 | 1.0 | 5.0 | 0.00 | 0.41 | 0.33 | 73 | 1014.7 |
| 20260906171818 | 68 | 43 | 1.0 | 3.0 | 0.00 | 0.41 | 0.33 | 71 | 1014.7 |
| 20260906171307 | 68 | 43 | 2.0 | 3.0 | 0.00 | 0.41 | 0.33 | 73 | 1014.7 |
| 20260906170752 | 68 | 43 | 0.0 | 2.0 | 0.00 | 0.41 | 0.33 | 76 | 1014.9 |
| 20260906170258 | 67 | 43 | 0.0 | 0.0 | 0.00 | 0.41 | 0.33 | 77 | 1014.9 |
| 20260906165801 | 67 | 56 | 0.0 | 1.0 | 0.00 | 0.41 | 0.33 | 79 | 1014.9 |
| 20260906165251 | 66 | 43 | 0.0 | 1.0 | 0.00 | 0.41 | 0.33 | 77 | 1015.1 |
| 20260906164754 | 66 | 43 | 0.0 | 1.0 | 0.00 | 0.41 | 0.33 | 76 | 1015.1 |
| 20260906164321 | 66 | 43 | 0.0 | 2.0 | 0.00 | 0.41 | 0.33 | 76 | 1015.1 |
| 20260906163801 | 66 | 44 | 1.0 | 3.0 | 0.00 | 0.41 | 0.33 | 75 | 1015.2 |
| 20260906163305 | 67 | 44 | 2.0 | 4.0 | 0.00 | 0.41 | 0.33 | 74 | 1015.2 |
| 20260906162751 | 67 | 37 | 1.0 | 4.0 | 0.00 | 0.41 | 0.33 | 74 | 1015.2 |
| 20260906162256 | 67 | 42 | 0.0 | 4.0 | 0.00 | 0.41 | 0.33 | 74 | 1015.1 |
| 20260906161804 | 67 | 45 | 1.0 | 4.0 | 0.00 | 0.41 | 0.33 | 76 | 1015.1 |
| 20260906161309 | 67 | 355 | 1.0 | 3.0 | 0.00 | 0.41 | 0.33 | 78 | 1015.1 |
| 20260906160821 | 67 | 360 | 0.0 | 2.0 | 0.00 | 0.41 | 0.33 | 77 | 1015.1 |
| 20260906160306 | 67 | 44 | 0.0 | 4.0 | 0.00 | 0.41 | 0.33 | 79 | 1015.1 |
| 20260906155754 | 66 | 44 | 0.0 | 4.0 | 0.00 | 0.41 | 0.33 | 82 | 1015.1 |
| 20260906155257 | 66 | 49 | 0.0 | 2.0 | 0.00 | 0.41 | 0.33 | 83 | 1015.2 |
| 20260906154807 | 65 | 175 | 0.0 | 2.0 | 0.00 | 0.41 | 0.33 | 83 | 1015.2 |
| 20260906154251 | 65 | 22 | 1.0 | 2.0 | 0.00 | 0.41 | 0.33 | 83 | 1015.2 |
| 20260906153758 | 65 | 22 | 0.0 | 3.0 | 0.00 | 0.41 | 0.33 | 85 | 1015.3 |
| 20260906153308 | 64 | 360 | 0.0 | 3.0 | 0.00 | 0.41 | 0.33 | 86 | 1015.3 |
| 20260906152753 | 64 | 360 | 1.0 | 2.0 | 0.00 | 0.41 | 0.33 | 88 | 1015.3 |
| 20260906152255 | 64 | 360 | 0.0 | 2.0 | 0.00 | 0.41 | 0.33 | 90 | 1015.4 |
| 20260906151803 | 63 | 135 | 0.0 | 1.0 | 0.00 | 0.41 | 0.33 | 91 | 1015.4 |
| 20260906151253 | 63 | 135 | 0.0 | 2.0 | 0.00 | 0.41 | 0.33 | 91 | 1015.4 |
| 20260906150759 | 63 | 135 | 0.0 | 2.0 | 0.00 | 0.41 | 0.33 | 92 | 1015.5 |
| 20260906150305 | 63 | 135 | 0.0 | 2.0 | 0.00 | 0.41 | 0.33 | 92 | 1015.5 |
| 20260906145810 | 62 | 34 | 0.0 | 0.0 | 0.00 | 0.41 | 0.33 | 93 | 1015.5 |
| 20260906145254 | 62 | 34 | 0.0 | 3.0 | 0.00 | 0.41 | 0.33 | 93 | 1015.5 |
| 20260906144758 | 62 | 34 | 0.0 | 3.0 | 0.00 | 0.41 | 0.33 | 93 | 1015.5 |
| 20260906144302 | 62 | 360 | 1.0 | 2.0 | 0.00 | 0.41 | 0.33 | 94 | 1015.5 |
| 20260906143752 | 62 | 351 | 0.0 | 0.0 | 0.00 | 0.41 | 0.33 | 94 | 1015.3 |
| 20260906143300 | 62 | 350 | 0.0 | 0.0 | 0.00 | 0.41 | 0.33 | 95 | 1015.3 |
| 20260906142807 | 62 | 351 | 0.0 | 0.0 | 0.00 | 0.41 | 0.33 | 95 | 1015.3 |
| 20260906142251 | 62 | 296 | 0.0 | 0.0 | 0.00 | 0.41 | 0.33 | 95 | 1015.2 |
| 20260906141756 | 62 | 296 | 0.0 | 0.0 | 0.00 | 0.41 | 0.33 | 95 | 1015.2 |
| 20260906141306 | 62 | 296 | 0.0 | 0.0 | 0.00 | 0.41 | 0.33 | 95 | 1015.2 |
| 20260906140828 | 62 | 296 | 0.0 | 0.0 | 0.00 | 0.41 | 0.33 | 95 | 1015.5 |
| 20260906140329 | 62 | 296 | 0.0 | 0.0 | 0.00 | 0.41 | 0.33 | 95 | 1015.5 |
| 20260906135751 | 62 | 296 | 0.0 | 0.0 | 0.00 | 0.41 | 0.33 | 96 | 1015.5 |
| 20260906135252 | 62 | 299 | 0.0 | 0.0 | 0.00 | 0.41 | 0.33 | 96 | 1015.3 |
| 20260906134805 | 62 | 299 | 0.0 | 1.0 | 0.00 | 0.41 | 0.33 | 96 | 1015.3 |
| 20260906134253 | 61 | 299 | 0.0 | 1.0 | 0.00 | 0.41 | 0.33 | 96 | 1015.3 |
| 20260906133809 | 61 | 299 | 0.0 | 1.0 | 0.00 | 0.41 | 0.33 | 96 | 1015.2 |
| 20260906133253 | 61 | 299 | 0.0 | 0.0 | 0.00 | 0.41 | 0.33 | 96 | 1015.2 |
| 20260906132819 | 61 | 299 | 0.0 | 0.0 | 0.00 | 0.41 | 0.33 | 96 | 1015.2 |
| 20260906132306 | 61 | 299 | 0.0 | 0.0 | 0.00 | 0.41 | 0.33 | 96 | 1015.2 |
| 20260906131806 | 61 | 299 | 0.0 | 0.0 | 0.00 | 0.41 | 0.33 | 96 | 1015.2 |
| 20260906131254 | 61 | 299 | 0.0 | 0.0 | 0.00 | 0.41 | 0.33 | 96 | 1015.2 |
| 20260906130807 | 60 | 293 | 0.0 | 0.0 | 0.00 | 0.41 | 0.33 | 96 | 1015.3 |
| 20260906130255 | 60 | 293 | 0.0 | 0.0 | 0.00 | 0.41 | 0.33 | 96 | 1015.3 |
| 20260906125802 | 60 | 293 | 0.0 | 0.0 | 0.00 | 0.41 | 0.33 | 96 | 1015.3 |
| 20260906125255 | 60 | 293 | 0.0 | 0.0 | 0.00 | 0.41 | 0.33 | 96 | 1015.2 |
| 20260906124804 | 60 | 293 | 0.0 | 0.0 | 0.00 | 0.41 | 0.33 | 96 | 1015.2 |
| 20260906124250 | 60 | 293 | 0.0 | 0.0 | 0.00 | 0.41 | 0.33 | 96 | 1015.2 |
| 20260906123755 | 60 | 293 | 0.0 | 0.0 | 0.00 | 0.41 | 0.33 | 96 | 1015.2 |
| 20260906123304 | 60 | 293 | 0.0 | 0.0 | 0.01 | 0.41 | 0.33 | 96 | 1015.2 |
| 20260906122753 | 60 | 293 | 0.0 | 0.0 | 0.01 | 0.41 | 0.33 | 95 | 1015.2 |
| 20260906122256 | 60 | 293 | 0.0 | 0.0 | 0.02 | 0.41 | 0.33 | 95 | 1015.1 |
| 20260906121758 | 60 | 293 | 0.0 | 0.0 | 0.03 | 0.41 | 0.33 | 95 | 1015.1 |
| 20260906121305 | 59 | 293 | 0.0 | 0.0 | 0.04 | 0.41 | 0.33 | 95 | 1015.1 |
| 20260906120756 | 59 | 293 | 0.0 | 0.0 | 0.05 | 0.41 | 0.33 | 95 | 1014.9 |
| 20260906120258 | 59 | 293 | 0.0 | 0.0 | 0.05 | 0.41 | 0.33 | 95 | 1014.9 |
| 20260906115824 | 59 | 293 | 0.0 | 0.0 | 0.05 | 0.41 | 0.33 | 95 | 1014.9 |
| 20260906115254 | 59 | 293 | 0.0 | 0.0 | 0.05 | 0.41 | 0.33 | 95 | 1014.7 |
| 20260906114801 | 59 | 293 | 0.0 | 0.0 | 0.05 | 0.41 | 0.33 | 95 | 1014.7 |
| 20260906114328 | 59 | 293 | 0.0 | 0.0 | 0.06 | 0.41 | 0.33 | 95 | 1014.7 |
| 20260906113755 | 59 | 293 | 0.0 | 0.0 | 0.05 | 0.40 | 0.32 | 95 | 1014.6 |
| 20260906113303 | 59 | 293 | 0.0 | 0.0 | 0.06 | 0.40 | 0.32 | 95 | 1014.6 |
| 20260906112809 | 59 | 293 | 0.0 | 0.0 | 0.06 | 0.40 | 0.32 | 95 | 1014.6 |
| 20260906112256 | 59 | 293 | 0.0 | 0.0 | 0.06 | 0.39 | 0.31 | 95 | 1014.5 |
| 20260906111804 | 59 | 293 | 0.0 | 0.0 | 0.05 | 0.38 | 0.30 | 95 | 1014.5 |
| 20260906111309 | 59 | 293 | 0.0 | 0.0 | 0.04 | 0.37 | 0.29 | 95 | 1014.5 |
| 20260906110754 | 59 | 293 | 0.0 | 0.0 | 0.03 | 0.36 | 0.28 | 95 | 1014.1 |
| 20260906110312 | 59 | 293 | 0.0 | 0.0 | 0.03 | 0.36 | 0.28 | 95 | 1014.1 |
| 20260906105815 | 59 | 293 | 0.0 | 0.0 | 0.03 | 0.36 | 0.28 | 95 | 1014.1 |
| 20260906105305 | 59 | 293 | 0.0 | 0.0 | 0.03 | 0.36 | 0.28 | 95 | 1014.0 |
| 20260906104808 | 59 | 293 | 0.0 | 0.0 | 0.02 | 0.35 | 0.27 | 95 | 1014.0 |
| 20260906104253 | 60 | 293 | 0.0 | 0.0 | 0.02 | 0.35 | 0.27 | 95 | 1014.0 |
| 20260906103757 | 60 | 293 | 0.0 | 0.0 | 0.02 | 0.35 | 0.27 | 95 | 1013.8 |
| 20260906103304 | 60 | 293 | 0.0 | 0.0 | 0.01 | 0.34 | 0.26 | 95 | 1013.8 |
| 20260906102753 | 60 | 293 | 0.0 | 0.0 | 0.00 | 0.33 | 0.25 | 95 | 1013.8 |
| 20260906102256 | 60 | 293 | 0.0 | 0.0 | 0.01 | 0.33 | 0.25 | 95 | 1013.6 |
| 20260906101805 | 60 | 293 | 0.0 | 0.0 | 0.01 | 0.33 | 0.25 | 95 | 1013.6 |
| 20260906101307 | 60 | 293 | 0.0 | 0.0 | 0.01 | 0.33 | 0.25 | 95 | 1013.6 |
| 20260906100756 | 60 | 293 | 0.0 | 0.0 | 0.01 | 0.33 | 0.25 | 95 | 1013.4 |
| 20260906100259 | 60 | 293 | 0.0 | 0.0 | 0.03 | 0.33 | 0.25 | 95 | 1013.4 |
| 20260906095805 | 60 | 293 | 0.0 | 0.0 | 0.04 | 0.33 | 0.25 | 95 | 1013.4 |
| 20260906095254 | 60 | 293 | 0.0 | 0.0 | 0.04 | 0.33 | 0.25 | 95 | 1013.1 |
| 20260906094757 | 60 | 293 | 0.0 | 0.0 | 0.06 | 0.33 | 0.25 | 95 | 1013.1 |
| 20260906094302 | 60 | 293 | 0.0 | 0.0 | 0.07 | 0.33 | 0.25 | 95 | 1013.1 |
| 20260906093810 | 60 | 293 | 0.0 | 0.0 | 0.07 | 0.33 | 0.25 | 95 | 1013.1 |
| 20260906093257 | 60 | 293 | 0.0 | 0.0 | 0.07 | 0.33 | 0.25 | 95 | 1013.1 |
| 20260906092824 | 61 | 293 | 0.0 | 0.0 | 0.07 | 0.33 | 0.25 | 95 | 1013.1 |
| 20260906092250 | 61 | 293 | 0.0 | 0.0 | 0.06 | 0.32 | 0.24 | 95 | 1013.1 |
| 20260906091814 | 61 | 293 | 0.0 | 0.0 | 0.06 | 0.32 | 0.24 | 95 | 1013.1 |
| 20260906091304 | 61 | 293 | 0.0 | 0.0 | 0.06 | 0.32 | 0.24 | 95 | 1013.1 |
| 20260906090808 | 61 | 293 | 0.0 | 0.0 | 0.06 | 0.32 | 0.24 | 95 | 1013.1 |
| 20260906090257 | 61 | 293 | 0.0 | 0.0 | 0.04 | 0.30 | 0.22 | 95 | 1013.1 |
| 20260906085802 | 61 | 293 | 0.0 | 0.0 | 0.03 | 0.29 | 0.21 | 95 | 1013.1 |
| 20260906085308 | 61 | 293 | 0.0 | 0.0 | 0.03 | 0.28 | 0.20 | 94 | 1013.1 |
| 20260906084751 | 61 | 293 | 0.0 | 0.0 | 0.02 | 0.27 | 0.19 | 94 | 1013.1 |
| 20260906084259 | 61 | 293 | 0.0 | 0.0 | 0.01 | 0.26 | 0.18 | 94 | 1013.1 |
| 20260906083824 | 61 | 293 | 0.0 | 0.0 | 0.01 | 0.26 | 0.18 | 94 | 1013.0 |
| 20260906083257 | 61 | 293 | 0.0 | 0.0 | 0.01 | 0.26 | 0.18 | 94 | 1013.0 |
| 20260906082803 | 61 | 293 | 0.0 | 0.0 | 0.01 | 0.26 | 0.18 | 94 | 1013.0 |
| 20260906082308 | 61 | 293 | 0.0 | 0.0 | 0.01 | 0.26 | 0.18 | 94 | 1013.0 |
| 20260906081758 | 61 | 293 | 0.0 | 0.0 | 0.01 | 0.26 | 0.18 | 94 | 1013.0 |
| 20260906081247 | 61 | 293 | 0.0 | 0.0 | 0.01 | 0.26 | 0.18 | 94 | 1013.0 |
| 20260906080804 | 61 | 293 | 0.0 | 0.0 | 0.01 | 0.26 | 0.18 | 94 | 1012.8 |
| 20260906080252 | 61 | 293 | 0.0 | 0.0 | 0.01 | 0.26 | 0.18 | 94 | 1012.8 |
| 20260906075759 | 61 | 293 | 0.0 | 0.0 | 0.01 | 0.26 | 0.18 | 94 | 1012.8 |
| 20260906075306 | 61 | 293 | 0.0 | 0.0 | 0.00 | 0.25 | 0.17 | 94 | 1012.9 |
| 20260906074753 | 61 | 293 | 0.0 | 0.0 | 0.00 | 0.25 | 0.17 | 94 | 1012.9 |
| 20260906074316 | 61 | 293 | 0.0 | 0.0 | 0.01 | 0.25 | 0.17 | 94 | 1012.9 |
| 20260906073806 | 61 | 293 | 0.0 | 0.0 | 0.01 | 0.25 | 0.17 | 94 | 1012.9 |
| 20260906073251 | 61 | 293 | 0.0 | 0.0 | 0.01 | 0.25 | 0.17 | 93 | 1012.9 |
| 20260906072817 | 61 | 293 | 0.0 | 0.0 | 0.01 | 0.25 | 0.17 | 94 | 1012.9 |
| 20260906072305 | 61 | 293 | 0.0 | 0.0 | 0.01 | 0.25 | 0.17 | 94 | 1012.9 |
| 20260906071804 | 61 | 293 | 0.0 | 0.0 | 0.02 | 0.25 | 0.17 | 94 | 1012.9 |
| 20260906071304 | 61 | 293 | 0.0 | 0.0 | 0.02 | 0.25 | 0.17 | 93 | 1012.9 |
| 20260906070808 | 61 | 293 | 0.0 | 0.0 | 0.03 | 0.25 | 0.17 | 93 | 1013.0 |
| 20260906070257 | 61 | 293 | 0.0 | 0.0 | 0.03 | 0.25 | 0.17 | 93 | 1013.0 |
| 20260906065802 | 61 | 293 | 0.0 | 0.0 | 0.03 | 0.25 | 0.17 | 93 | 1013.0 |
| 20260906065306 | 61 | 293 | 0.0 | 0.0 | 0.03 | 0.25 | 0.17 | 93 | 1013.0 |
| 20260906064753 | 61 | 293 | 0.0 | 0.0 | 0.03 | 0.25 | 0.17 | 93 | 1013.0 |
| 20260906064304 | 61 | 293 | 0.0 | 0.0 | 0.03 | 0.24 | 0.16 | 92 | 1013.0 |
| 20260906063750 | 61 | 293 | 0.0 | 0.0 | 0.05 | 0.24 | 0.16 | 92 | 1013.1 |
| 20260906063256 | 61 | 293 | 0.0 | 0.0 | 0.05 | 0.24 | 0.16 | 92 | 1013.1 |
| 20260906062821 | 61 | 293 | 0.0 | 0.0 | 0.05 | 0.24 | 0.16 | 92 | 1013.1 |
| 20260906062306 | 61 | 293 | 0.0 | 1.0 | 0.05 | 0.24 | 0.16 | 92 | 1013.1 |
| 20260906061751 | 61 | 295 | 0.0 | 0.0 | 0.05 | 0.23 | 0.15 | 92 | 1013.1 |
| 20260906061254 | 61 | 295 | 0.0 | 0.0 | 0.05 | 0.23 | 0.15 | 92 | 1013.1 |
| 20260906060757 | 61 | 295 | 0.0 | 0.0 | 0.04 | 0.22 | 0.14 | 92 | 1013.1 |
| 20260906060321 | 61 | 295 | 0.0 | 0.0 | 0.04 | 0.22 | 0.14 | 92 | 1013.1 |
| 20260906055753 | 61 | 295 | 0.0 | 0.0 | 0.04 | 0.22 | 0.14 | 91 | 1013.1 |
| 20260906055251 | 61 | 295 | 0.0 | 0.0 | 0.04 | 0.22 | 0.14 | 91 | 1013.1 |
| 20260906054756 | 61 | 295 | 0.0 | 0.0 | 0.04 | 0.22 | 0.14 | 91 | 1013.1 |
| 20260906054322 | 62 | 295 | 0.0 | 0.0 | 0.02 | 0.20 | 0.12 | 91 | 1013.1 |
| 20260906053759 | 62 | 295 | 0.0 | 0.0 | 0.02 | 0.19 | 0.11 | 91 | 1013.1 |
| 20260906053303 | 62 | 295 | 0.0 | 0.0 | 0.02 | 0.19 | 0.11 | 91 | 1013.1 |
| 20260906052755 | 62 | 295 | 0.0 | 0.0 | 0.03 | 0.19 | 0.11 | 91 | 1013.1 |
| 20260906052305 | 62 | 295 | 0.0 | 0.0 | 0.04 | 0.19 | 0.11 | 91 | 1013.1 |
| 20260906051826 | 62 | 295 | 0.0 | 0.0 | 0.05 | 0.18 | 0.10 | 91 | 1013.1 |
| 20260906051309 | 62 | 295 | 0.0 | 0.0 | 0.06 | 0.18 | 0.10 | 91 | 1013.1 |
| 20260906050758 | 62 | 295 | 0.0 | 0.0 | 0.08 | 0.18 | 0.10 | 91 | 1013.1 |
| 20260906050303 | 62 | 295 | 0.0 | 0.0 | 0.08 | 0.18 | 0.10 | 91 | 1013.1 |
| 20260906045805 | 63 | 295 | 0.0 | 0.0 | 0.09 | 0.18 | 0.10 | 91 | 1013.1 |
| 20260906045314 | 63 | 295 | 0.0 | 0.0 | 0.10 | 0.18 | 0.10 | 91 | 1013.1 |
| 20260906044813 | 63 | 295 | 0.0 | 0.0 | 0.11 | 0.18 | 0.10 | 91 | 1013.1 |
| 20260906044326 | 63 | 295 | 0.0 | 0.0 | 0.13 | 0.18 | 0.10 | 91 | 1013.1 |
| 20260906043750 | 63 | 295 | 0.0 | 0.0 | 0.13 | 0.17 | 0.09 | 91 | 1013.1 |
| 20260906043255 | 63 | 295 | 0.0 | 0.0 | 0.15 | 0.17 | 0.09 | 90 | 1013.1 |
| 20260906042822 | 63 | 295 | 0.0 | 0.0 | 0.15 | 0.16 | 0.08 | 90 | 1013.1 |
| 20260906042251 | 63 | 295 | 0.0 | 0.0 | 0.15 | 0.15 | 0.07 | 90 | 1013.0 |
| 20260906041755 | 63 | 295 | 0.0 | 0.0 | 0.13 | 0.13 | 0.05 | 90 | 1013.0 |
| 20260906041325 | 64 | 295 | 0.0 | 0.0 | 0.12 | 0.12 | 0.04 | 90 | 1013.0 |
| 20260906040810 | 64 | 295 | 0.0 | 0.0 | 0.10 | 0.10 | 0.02 | 90 | 1013.0 |
| 20260906040312 | 64 | 295 | 0.0 | 0.0 | 0.10 | 0.10 | 0.02 | 90 | 1013.0 |
| 20260906035817 | 64 | 295 | 0.0 | 0.0 | 0.09 | 0.09 | 0.01 | 89 | 1013.0 |
| 20260906035306 | 64 | 295 | 0.0 | 0.0 | 0.08 | 0.08 | 0.08 | 89 | 1012.8 |
| 20260906034808 | 64 | 295 | 0.0 | 0.0 | 0.06 | 0.06 | 0.06 | 89 | 1012.8 |
| 20260906034251 | 64 | 295 | 0.0 | 0.0 | 0.05 | 0.05 | 0.05 | 89 | 1012.8 |
| 20260906033755 | 65 | 295 | 0.0 | 0.0 | 0.03 | 0.03 | 0.03 | 88 | 1012.6 |
| 20260906033304 | 65 | 295 | 0.0 | 0.0 | 0.02 | 0.02 | 0.02 | 88 | 1012.6 |
| 20260906032752 | 65 | 295 | 0.0 | 0.0 | 0.01 | 0.01 | 0.01 | 87 | 1012.6 |
| 20260906032319 | 65 | 295 | 0.0 | 0.0 | 0.00 | 0.00 | 0.00 | 87 | 1012.5 |
| 20260906031807 | 65 | 295 | 0.0 | 0.0 | 0.00 | 0.00 | 0.00 | 86 | 1012.5 |
| 20260906031314 | 65 | 295 | 0.0 | 0.0 | 0.00 | 0.00 | 0.00 | 86 | 1012.5 |
| 20260906030759 | 65 | 295 | 0.0 | 0.0 | 0.00 | 0.00 | 0.00 | 86 | 1012.2 |
| 20260906030301 | 65 | 295 | 0.0 | 0.0 | 0.00 | 0.00 | 0.00 | 86 | 1012.2 |
| 20260906025813 | 65 | 295 | 0.0 | 0.0 | 0.00 | 0.00 | 0.00 | 86 | 1012.2 |
| 20260906025259 | 65 | 295 | 0.0 | 0.0 | 0.00 | 0.00 | 0.00 | 86 | 1012.1 |
| 20260906024749 | 65 | 295 | 0.0 | 0.0 | 0.00 | 0.00 | 0.00 | 86 | 1012.1 |
| 20260906024254 | 65 | 295 | 0.0 | 0.0 | 0.00 | 0.00 | 0.00 | 86 | 1012.1 |
| 20260906023755 | 65 | 295 | 0.0 | 0.0 | 0.00 | 0.00 | 0.00 | 86 | 1012.2 |
| 20260906023318 | 65 | 295 | 0.0 | 0.0 | 0.00 | 0.00 | 0.00 | 86 | 1012.2 |
| 20260906022805 | 65 | 295 | 0.0 | 0.0 | 0.00 | 0.00 | 0.00 | 86 | 1012.2 |
| 20260906022309 | 65 | 295 | 0.0 | 0.0 | 0.00 | 0.00 | 0.00 | 86 | 1012.1 |
| 20260906021755 | 66 | 295 | 0.0 | 0.0 | 0.00 | 0.00 | 0.00 | 86 | 1012.1 |
| 20260906021248 | 66 | 295 | 0.0 | 0.0 | 0.00 | 0.00 | 0.00 | 87 | 1012.1 |
| 20260906020801 | 66 | 295 | 0.0 | 0.0 | 0.00 | 0.00 | 0.00 | 86 | 1012.0 |
| 20260906020308 | 66 | 295 | 0.0 | 2.0 | 0.00 | 0.00 | 0.00 | 86 | 1012.0 |
| 20260906015757 | 66 | 295 | 0.0 | 2.0 | 0.00 | 0.00 | 0.00 | 87 | 1012.0 |
| 20260906015305 | 66 | 295 | 0.0 | 0.0 | 0.00 | 0.00 | 0.00 | 87 | 1011.8 |
| 20260906014829 | 66 | 295 | 0.0 | 0.0 | 0.00 | 0.00 | 0.00 | 87 | 1011.8 |
| 20260906014254 | 66 | 295 | 0.0 | 0.0 | 0.00 | 0.00 | 0.00 | 87 | 1011.8 |
| 20260906013806 | 66 | 295 | 0.0 | 0.0 | 0.00 | 0.00 | 0.00 | 87 | 1011.9 |
| 20260906013254 | 67 | 295 | 0.0 | 0.0 | 0.00 | 0.00 | 0.00 | 87 | 1011.9 |
| 20260906012802 | 67 | 295 | 0.0 | 2.0 | 0.00 | 0.00 | 0.00 | 86 | 1011.9 |
| 20260906012325 | 67 | 295 | 1.0 | 2.0 | 0.00 | 0.00 | 0.00 | 86 | 1011.7 |
| 20260906011812 | 67 | 295 | 0.0 | 0.0 | 0.00 | 0.00 | 0.00 | 86 | 1011.7 |
| 20260906011257 | 67 | 295 | 0.0 | 0.0 | 0.00 | 0.00 | 0.00 | 86 | 1011.7 |
| 20260906010802 | 68 | 295 | 0.0 | 0.0 | 0.00 | 0.00 | 0.00 | 86 | 1011.7 |
| 20260906010326 | 68 | 295 | 0.0 | 3.0 | 0.00 | 0.00 | 0.00 | 86 | 1011.7 |
| 20260906005750 | 68 | 295 | 0.0 | 3.0 | 0.00 | 0.00 | 0.00 | 86 | 1011.7 |
| 20260906005256 | 68 | 27 | 0.0 | 0.0 | 0.00 | 0.00 | 0.00 | 86 | 1011.5 |
| 20260906004809 | 68 | 27 | 0.0 | 0.0 | 0.00 | 0.00 | 0.00 | 85 | 1011.5 |
| 20260906004257 | 68 | 27 | 0.0 | 0.0 | 0.00 | 0.00 | 0.00 | 85 | 1011.5 |
| 20260906003803 | 68 | 27 | 0.0 | 0.0 | 0.00 | 0.00 | 0.00 | 84 | 1011.3 |
| 20260906003252 | 68 | 27 | 0.0 | 0.0 | 0.00 | 0.00 | 0.00 | 84 | 1011.3 |
| 20260906002757 | 68 | 27 | 0.0 | 0.0 | 0.00 | 0.00 | 0.00 | 84 | 1011.3 |
| 20260906002305 | 68 | 27 | 0.0 | 0.0 | 0.00 | 0.00 | 0.00 | 84 | 1011.1 |
| 20260906001810 | 69 | 27 | 0.0 | 0.0 | 0.00 | 0.00 | 0.00 | 84 | 1011.1 |
| 20260906001254 | 69 | 27 | 0.0 | 0.0 | 0.00 | 0.00 | 0.00 | 84 | 1011.1 |
| 20260906000755 | 69 | 27 | 0.0 | 0.0 | 0.00 | 0.00 | 0.00 | 83 | 1011.0 |
| 20260906000258 | 69 | 27 | 0.0 | 0.0 | 0.00 | 0.00 | 0.00 | 83 | 1011.0 |
| 20260905235803 | 69 | 27 | 0.0 | 0.0 | 0.00 | 0.00 | 0.00 | 82 | 1011.0 |
| 20260905235407 | 70 | 27 | 0.0 | 0.0 | 0.00 | 0.00 | 0.00 | 82 | 1010.8 |
| 20260905234755 | 70 | 27 | 0.0 | 0.0 | 0.00 | 0.00 | 0.00 | 82 | 1010.8 |
| 20260905234303 | 70 | 27 | 0.0 | 1.0 | 0.00 | 0.00 | 0.00 | 81 | 1010.8 |
| 20260905233807 | 70 | 27 | 0.0 | 1.0 | 0.00 | 0.00 | 0.00 | 80 | 1010.5 |
| 20260905233250 | 71 | 27 | 0.0 | 2.0 | 0.00 | 0.00 | 0.00 | 81 | 1010.5 |
| 20260905232818 | 71 | 27 | 0.0 | 2.0 | 0.00 | 0.00 | 0.00 | 80 | 1010.5 |
| 20260905232306 | 71 | 27 | 0.0 | 1.0 | 0.00 | 0.00 | 0.00 | 78 | 1010.5 |
| 20260905231749 | 71 | 27 | 0.0 | 0.0 | 0.00 | 0.00 | 0.00 | 76 | 1010.5 |
| 20260905231252 | 71 | 27 | 0.0 | 0.0 | 0.00 | 0.00 | 0.00 | 75 | 1010.5 |
| 20260905230804 | 72 | 27 | 0.0 | 0.0 | 0.00 | 0.00 | 0.00 | 75 | 1010.4 |
| 20260905230308 | 72 | 27 | 0.0 | 0.0 | 0.00 | 0.00 | 0.00 | 75 | 1010.4 |
| 20260905225758 | 72 | 27 | 0.0 | 1.0 | 0.00 | 0.00 | 0.00 | 75 | 1010.4 |
| 20260905225305 | 72 | 27 | 0.0 | 1.0 | 0.00 | 0.00 | 0.00 | 73 | 1010.4 |
| 20260905224804 | 72 | 27 | 0.0 | 0.0 | 0.00 | 0.00 | 0.00 | 71 | 1010.4 |
| 20260905224308 | 72 | 27 | 0.0 | 0.0 | 0.00 | 0.00 | 0.00 | 71 | 1010.4 |
| 20260905223755 | 72 | 27 | 0.0 | 0.0 | 0.00 | 0.00 | 0.00 | 71 | 1010.2 |
| 20260905223306 | 72 | 27 | 0.0 | 0.0 | 0.00 | 0.00 | 0.00 | 70 | 1010.2 |
| 20260905222814 | 73 | 27 | 0.0 | 0.0 | 0.00 | 0.00 | 0.00 | 69 | 1010.2 |
| 20260905222301 | 73 | 27 | 0.0 | 0.0 | 0.00 | 0.00 | 0.00 | 69 | 1010.0 |
| 20260905221749 | 73 | 27 | 0.0 | 0.0 | 0.00 | 0.00 | 0.00 | 68 | 1010.0 |
| 20260905221259 | 73 | 27 | 0.0 | 0.0 | 0.00 | 0.00 | 0.00 | 67 | 1010.0 |
| 20260905220805 | 73 | 27 | 0.0 | 0.0 | 0.00 | 0.00 | 0.00 | 68 | 1009.9 |
| 20260905220250 | 74 | 27 | 0.0 | 0.0 | 0.00 | 0.00 | 0.00 | 67 | 1009.9 |
| 20260905215814 | 74 | 27 | 0.0 | 1.0 | 0.00 | 0.00 | 0.00 | 68 | 1009.9 |
| 20260905215300 | 74 | 27 | 0.0 | 0.0 | 0.00 | 0.00 | 0.00 | 67 | 1009.9 |
| 20260905214750 | 75 | 27 | 0.0 | 3.0 | 0.00 | 0.00 | 0.00 | 65 | 1009.9 |